CHINASAT 9A (ZX 9A) (42763 NORAD) Tracking and Keplerian Element Data

This shows tracking and keplerian element data for the satellite.

Feedback or suggestion? Click here.




ElementValue
Catalog42763
NameCHINASAT 9A (ZX 9A)
Epoch Orbit466
Epoch Day198.98123513
Epoch Year2018
RAAN278.2357
Inclination0.012
Eccentricity0.0004151
Argument of Perigee179.3504
Mean Anonmoly292.7926
Mean Motion1.00271096
Decay Rate-3.33E-06
L11 42763U 17035A 18198.98123513 -.00000333 00000-0 00000-0 0 9997
L22 42763 0.0120 278.2357 0004151 179.3504 292.7926 1.00271096 4660

Live tracking and technical data element details for CHINASAT 9A (ZX 9A) (NORAD 42763). CHINASAT 9A (ZX 9A) can be tracked NOW for your location showing map with azimuth and elevation plus other details from your city location.

Track the satellite on the map from your city or location and see movement details for azimuth, elevation, latitude, longitude, range, height, and movement on the map or in text.







IsCatalogInMostPopularTable: catalog: 42763, numindb: 66
Update: records affected: 1



GetName: 42763 CHINASAT 9A (ZX 9A)

Hit Count: updated at: Fri, 20 Jul 2018 20:34:55 GMT